Regional Weather Roundup
Issued by NWS

Home | Current Version | Previous Version | Graphics & Text | Print | Product List | Glossary On
Versions: 1 2 3 4 5 6 7 8 9 10 11 12 13 14 15 16 17 18 19 20 21 22 23 24 25 26 27 28 29 30 31 32 33 34 35 36 37 38 39 40 41 42 43 44 45 46 47 48 49 50
000
ASUS43 KIND 300409
RWRIN

WEATHER ROUNDUP FOR INDIANA
NATIONAL WEATHER SERVICE INDIANAPOLIS IN
1200 AM EDT TUE JUN 30 2015

NOTE: "FAIR" INDICATES FEW OR NO CLOUDS BELOW 12,000 FEET WITH NO
SIGNIFICANT WEATHER AND/OR OBSTRUCTIONS TO VISIBILITY.

* - STATION DOES NOT REPORT WEATHER SUCH AS PRECIPITATION OR FOG.

+ - STATION NOT QUALITY CONTROLLED BY THE NATIONAL WEATHER SERVICE.
    USE DATA WITH CAUTION...ESPECIALLY DEWPOINT AND RELATIVE
    HUMIDITY OBSERVATIONS.

INZ001>003-010>013-019-020-300500-
NORTHWEST INDIANA

CITY           SKY/WX    TMP DP  RH WIND       PRES   REMARKS
GARY /AIRPORT/ CLEAR     66  66  99 CALM      29.81S FOG
KNOX *+        PTCLDY    61  61 100 CALM      29.82S
LA PORTE +     CLOUDY    64  64 100 CALM      29.83S
MICHIGAN CITY+ MOCLDY    63  63 100 CALM      29.82F
MONTICELLO +   CLOUDY    65  65 100 S3        29.82S
RENSSELAER +   CLEAR     63  63 100 CALM      29.82F FOG
VALPARAISO     MOCLDY    63  61  93 E3        29.82S

$$

LMZ046-743>745-300500-
SOUTHERN LAKE MICHIGAN

STATION/POSITION TIME  TEMP    WIND        PRES    WAVE
                       AIR SEA DIR/SP/G            HT
                 (UTC) (F)     (DEG/KT/KT) (MB)    (FT)
BURNS HARBOR     0400   67     170/  5/  9 1009.8F
MICHIGAN CITY    0400   65     120/  8/ 10   N/A
5NW MICH CITY    0400   65 65  170/  6/ 10   N/A     1

$$

INZ004-005-014>016-021>024-300500-
NORTH CENTRAL INDIANA

CITY           SKY/WX    TMP DP  RH WIND       PRES   REMARKS
GOSHEN         CLEAR     59  57  93 CALM      29.83S FOG
LOGANSPORT +   CLEAR     61  59  94 CALM      29.83F
PERU/GRISSOM   CLEAR     64  62  94 SE5       29.82F
ROCHESTER +    CLEAR     64  64 100 S3        29.83F
SOUTH BEND     CLEAR     63  59  87 SE6       29.83S
WARSAW +         N/A     55  55 100 CALM      29.83S FOG

$$

INZ006>009-017-018-025>027-300500-
NORTHEAST INDIANA

CITY           SKY/WX    TMP DP  RH WIND       PRES   REMARKS
ANGOLA *+      CLOUDY    63  52  67 CALM      29.85R
AUBURN +       PTCLDY    61  57  88 CALM      29.84S
FORT WAYNE     PTCLDY    61  59  93 CALM      29.84S
HUNTINGTON +   CLEAR     60  59  96 CALM      29.83S

$$

INZ028-029-035-036-043>045-051>053-300500-
WEST CENTRAL INDIANA

CITY           SKY/WX    TMP DP  RH WIND       PRES   REMARKS
CRAWFORDSVL +  PTCLDY    62  61  97 CALM      29.84S
GREENCASTLE +  CLOUDY    64  61  88 CALM      29.85S
LAFAYETTE      FOG       63  62  97 W3        29.82F VSB 1/4
TERRE HAUTE    CLEAR     70  64  81 W7        29.84S

$$

INZ030>032-037>040-046>048-054>057-064-065-300500-
CENTRAL INDIANA

CITY           SKY/WX    TMP DP  RH WIND       PRES   REMARKS
CP ATTERBURY + PTCLDY    64  63  94 SW5       29.85S
FRANKFORT +      N/A    N/A N/A N/A CALM      29.85S FOG
GREENWOOD *+   PTCLDY    66  63  88 W3        29.84
INDIANAPOLIS   MOCLDY    66  62  87 SW7       29.82F
-EAGLE CREEK   CLEAR     67  64  90 W3        29.83S
KOKOMO *+      CLEAR     63  61  94 CALM      29.83S
MARION +       PTCLDY    62  61  96 CALM      29.84F
MT COMFORT *+  PTCLDY    63 N/A N/A CALM      29.84S
SHELBYVILLE    PTCLDY    69  66  90 S6        29.82S
ZIONSVILLE +   CLEAR     65  62  90 CALM      29.84S FOG

$$

INZ033-034-041-042-049-050-058-059-300500-
EAST CENTRAL INDIANA

CITY           SKY/WX    TMP DP  RH WIND       PRES   REMARKS
MUNCIE         CLOUDY    65  62  90 E3        29.84S

$$

INZ060-061-067>069-081>083-085>088-300500-
SOUTHWEST INDIANA

CITY           SKY/WX    TMP DP  RH WIND       PRES   REMARKS
EVANSVILLE     PTCLDY    73  64  73 CALM      29.88R
HUNTINGBURG *+ CLEAR     70  63  78 S5        29.88S
WASHINGTON +   CLEAR     68  64  85 W7        29.86S

$$

INZ062-063-066-070>080-084-089>092-300500-
SOUTH CENTRAL AND SOUTHEAST INDIANA

CITY           SKY/WX    TMP DP  RH WIND       PRES   REMARKS
BLOOMINGTON    CLEAR     67  64  90 SW5       29.85R
MADISON *+     CLEAR     70  63  78 W3        29.88S
NORTH VERNON + MOCLDY    68  68 100 SW5       29.86R
SEYMOUR +      MOCLDY    70  66  88 SW3       29.85R

$$




USA.gov is the U.S. government's official web portal to all federal, state and local government web resources and services.